Regional Weather Roundup
Issued by NWS

Home | Current Version | Previous Version | Text Only | Print | Product List | Glossary On
Versions: 1 2 3 4 5 6 7 8 9 10 11 12 13 14 15 16 17 18 19 20 21 22 23 24 25 26 27 28 29 30 31 32 33 34 35 36 37 38 39 40 41 42 43 44 45 46 47 48 49 50
000
ASUS45 KREV 300810
RWRNV
NEVADA REGIONAL WEATHER ROUNDUP
NATIONAL WEATHER SERVICE RENO NV
100 AM PDT THU JUL 30 2015

NOTE: "FAIR" INDICATES FEW OR NO CLOUDS BELOW 12,000 FEET WITH NO
SIGNIFICANT WEATHER AND/OR OBSTRUCTIONS TO VISIBILITY.

NVZ001-003-004-300900-
WESTERN NEVADA

CITY           SKY/WX    TMP DP  RH WIND       PRES   REMARKS
RENO           CLEAR     74  35  24 W3        30.21R
CARSON CITY    FAIR      64  28  25 SE3       30.23R
MINDEN         FAIR      55  37  50 E9        30.23S
SLIDE MTN        N/A     59  32  36 E13         N/A
PYRAMID LAKE     N/A     81 N/A N/A N1          N/A
FALLON         CLEAR     63  30  28 CALM      30.15R
LOVELOCK       CLEAR     60  27  28 SE3       30.16R
$$

NVZ002-CAZ072-073-300900-
NORTHERN AND CENTRAL SIERRA

CITY           SKY/WX    TMP DP  RH WIND       PRES   REMARKS
S. LAKE TAHOE  CLEAR     55  38  52 CALM      30.36R
TRUCKEE        CLEAR     50  37  62 CALM      30.35R
SQUAW VLY 8000   N/A     61  32  33 N3          N/A
SUSANVILLE     CLEAR     63  32  31 CALM      30.20R
BLUE CANYON    CLEAR     75  30  19 NE5       30.28S
MAMMOTH LAKES  FAIR      57  32  38 CALM      30.41R
BRIDGEPORT     FAIR      53  30  41 CALM      30.38R
$$

NVZ030-031-036-300900-
NORTHERN NEVADA

CITY           SKY/WX    TMP DP  RH WIND       PRES   REMARKS
ELKO           CLEAR     53  31  42 W5        30.28R
WINNEMUCCA     CLEAR     72  21  14 NE17      30.21S
WENDOVER       CLEAR     64  30  27 W6        30.25S
$$

NVZ035-037-300900-
CENTRAL NEVADA

CITY           SKY/WX    TMP DP  RH WIND       PRES   REMARKS
ELY            CLEAR     52  22  30 S8        30.36R
EUREKA           N/A     54  20  26 CALM      30.32R
$$

NVZ013-014-300900-
SOUTH CENTRAL NEVADA

CITY           SKY/WX    TMP DP  RH WIND       PRES   REMARKS
TONOPAH        CLEAR     69  14  12 N10       30.25R
$$

NVZ017-020-022-300900-
SOUTHERN NEVADA

CITY           SKY/WX    TMP DP  RH WIND       PRES   REMARKS
LAS VEGAS      CLOUDY    91  51  25 S8        29.94F
N. LAS VEGAS   CLOUDY    91  51  25 W8        29.97S
NELLIS AFB     CLOUDY    90  54  29 SW3       29.95S
HENDERSON      CLOUDY    87  55  33 SW14      30.02F
MERCURY        PTCLDY    85  46  25 SW16      30.07R
$$



USA.gov is the U.S. government's official web portal to all federal, state and local government web resources and services.